Location: ???????
(55.4362°N, 38.1183°E)
Time: 05:52:40
(UTC+00:00)

Cosmos 1953 - Visible Passes

Search period start: 26 October 2021 00:00
Search period end: 05 November 2021 00:00
Orbit: 539 x 555 km, 82.5° (Epoch: 25 October)

Date Brightness Start Highest point End Pass type
(mag) Time Alt. Az. Time Alt. Az. Time Alt. Az.
26 Oct 5.4 00:09:58 10° NNE 00:15:40 - ESE 00:10:27 12° NNE visible
26 Oct 3.6 01:45:33 10° NNW 01:51:40 27° S 01:53:35 10° S visible
26 Oct4.803:27:39WSW03:27:39WSW03:21:20NWvisible
26 Oct 4.2 15:49:11 10° SW 15:52:52 32° WNW 15:56:34 10° N visible
27 Oct5.601:50:03S01:50:03S01:38:48NNWvisible
27 Oct 4.3 15:44:01 10° SW 15:47:39 31° WNW 15:51:18 10° N visible
28 Oct 4.4 15:38:51 10° SW 15:42:26 29° WNW 15:46:03 10° N visible
29 Oct 4.5 15:33:42 10° SW 15:37:13 28° WNW 15:40:47 10° N visible
30 Oct 4.6 15:28:32 10° SW 15:32:01 27° WNW 15:35:31 10° N visible
31 Oct 4.6 15:23:22 10° WSW 15:26:48 26° WNW 15:30:14 10° N visible
01 Nov 4.7 15:18:13 10° WSW 15:21:34 24° WNW 15:24:57 10° N visible
02 Nov 4.8 15:13:04 10° WSW 15:16:21 23° WNW 15:19:40 10° N visible
03 Nov 4.8 15:07:54 10° WSW 15:11:08 22° WNW 15:14:23 10° N visible
04 Nov 4.9 15:02:45 10° WSW 15:05:55 21° WNW 15:09:05 10° NNW visible
